Погода в Дабу

Кот-д’Ивуар     5°19′46″N   4°22′32″W
темп.,
°C
ветер,
м/с
пор.,
м/с
влажн.,
%
обл.,
%
осадки,
мм/ч
давл.,
гПа
погр.,
м
1 марта, пн
пн100:00+26юз578997 1.6 1010385
03:00+26зюз468988 0.3 1008415
06:00+26зюз468993 0.4 1008465
09:00+27юз458479 0.0 1010613
12:00+27юз558164 0.0 1009540
15:00+27юз56819 0.0 1007467
18:00+27юз568234 0.1 1007399
21:00+27юз4586100 0.0 1010238
2 марта, вт
вт200:00+26юз458897 0.0 1009274
03:00+26юз57895 0.0 1008536
06:00+26ююз578914 0.1 1008511
09:00+27юз458427 0.1 1010585
12:00+27юз458137 0.2 1010462
15:00+28ююз457868 0.1 1008434
18:00+27ююз458241 0.1 1008338
21:00+27ююз458548 0.0 1010179
3 марта, ср
ср300:00+27ююз468636 0.0 1009243
03:00+26ююз479068 0.0 1008429
06:00+26ююз469076 0.0 1009447
09:00+27юз458316 0.1 1011634
12:00+28юз568118 0.1 1011600
15:00+27юз56814 0.0 1008539
18:00+27юз46846 0.0 1009475
21:00+27ююз68870 0.0 1010431
4 марта, чт
чт400:00+27юз58890 0.0 1010461
03:00+27зюз69880 0.0 1008588
06:00+27зюз698816 0.0 1009557
09:00+27зюз588374 0.0 1010710
12:00+28юз788154 0.0 1010629
15:00+27юз798161 0.0 1007497
18:00+27юз798361 0.0 1007417
21:00+27юз59870 0.0 1009443
5 марта, пт
пт500:00+27юз69890 0.0 1010543
03:00+27зюз7108818 0.0 1008683
06:00+27юз698711 0.2 1008660
09:00+27юз688311 0.0 1010785
12:00+28юз798148 0.2 1010772
15:00+27юз688285 0.3 1007648
18:00+27юз588573 0.4 1008491
21:00+27ююз58882 0.1 1010464